Regional Weather Roundup
Issued by NWS State College, PA

Home | Current Version | Previous Version | Text Only | Print | Product List | Glossary On
Versions: 1 2 3 4 5 6 7 8 9 10 11 12 13 14 15 16 17 18 19 20 21 22 23 24 25 26 27 28 29 30 31 32 33 34 35 36 37 38 39 40 41 42 43 44 45 46 47 48 49 50
399
ASUS41 KCTP 290610
RWRCTP

REGIONAL WEATHER ROUNDUP
NATIONAL WEATHER SERVICE STATE COLLEGE PA
200 AM EDT THU JUN 29 2017

Note: "fair" indicates few or no clouds below 12,000 feet with no
significant weather and/or obstructions to visibility.

* = STATION THAT DOES NOT REPORT PRECIPITATION /E.G. RAIN...SNOW...ETC/
    THUNDER OR FOG.

PAZ002>004-007>009-013>016-020>023-029>032-290700-
WESTERN PENNSYLVANIA

CITY           SKY/WX    TMP DP  RH WIND       PRES   REMARKS
ERIE           CLOUDY    68  53  58 S12       30.03S
MEADVILLE      CLOUDY    64  54  69 S5        30.07S
FRANKLIN*      PTCLDY    61  48  63 S6        30.09S
NEW CASTLE     FAIR      64  54  69 CALM      30.07F
BEAVER COUNTY  NOT AVBL
BUTLER*        CLOUDY    63  52  67 S5        30.08F
PITTSBURGH INT CLOUDY    61  53  75 S5        30.08F
PITTSBURGH     MOCLDY    62  51  67 S5        30.09S
INDIANA*       CLEAR     61  55  82 CALM      30.13F
LATROBE        MOCLDY    55  55 100 CALM      30.11F
WASHINGTON CO* CLOUDY    54  52  94 CALM      30.11F
$$

PAZ004>006-010>012-017>019-024>028-033>037-041-042-045-046-049>053-290700-
CENTRAL PENNSYLVANIA

CITY           SKY/WX    TMP DP  RH WIND       PRES   REMARKS
BRADFORD       PTCLDY    62  51  67 SW5       30.11F
DUBOIS         CLOUDY    61  49  64 CALM      30.10F
CLEARFIELD     CLOUDY    57  53  86 CALM      30.13S
JOHNSTOWN      CLOUDY    59  51  75 SW6       30.14S
ALTOONA        MOCLDY    61  54  77 SW6       30.13R
STATE COLLEGE  CLOUDY    63  52  66 W5        30.12S
WILLIAMSPORT   CLOUDY    61  54  77 CALM      30.10S
SELINSGROVE    CLOUDY    63  56  78 S3        30.12S
FT INDIANTOWN  CLOUDY    58  54  87 CALM      30.14S
CAPITAL CITY   CLOUDY    70  51  51 SW8       30.13R
HARRISBURG     CLOUDY    70  54  56 S7        30.12S
YORK           MOCLDY    67  56  67 S6        30.14S
$$

PAZ038>040-043-044-047-048-054-055-060>062-067>071-290700-
EASTERN PENNSYLVANIA

CITY           SKY/WX    TMP DP  RH WIND       PRES   REMARKS
SCRANTON       CLOUDY    66  50  56 CALM      30.13S
MOUNT POCONO   PTCLDY    60  49  66 W9        30.16S
ALLENTOWN      CLOUDY    62  52  69 N5        30.13S
QUAKERTOWN*    CLOUDY    59  54  82 CALM      30.16S
READING        CLOUDY    65  58  78 CALM      30.13R
LANCASTER      PTCLDY    68  57  68 SW6       30.14S
COATESVILLE    MOCLDY    64  57  77 CALM      30.17S
POTTSTOWN      CLOUDY    66  52  60 CALM      30.16S
BLUE BELL      PTCLDY    64  54  68 SW6       30.17S
DOYLESTOWN     MOCLDY    64  53  67 S3        30.14S
WILLOW GROVE   NOT AVBL
NORTH PHILA    CLOUDY    70  57  63 SW5       30.16S
PHILADELPHIA   MOCLDY    69  57  65 SW6       30.16S
$$




USA.gov is the U.S. government's official web portal to all federal, state and local government web resources and services.